Olivehurst, CA

6:44 PM PST on December 03, 2016 (GMT -0800)
Yuba County

Weather History for KMYV - October, 2012

Change the Weather History Date:

Thursday, October 18, 2012

  Actual Average Record
Temperature  
Mean Temperature 72 °F -  
Max Temperature 89 °F 78 °F 96 °F (1961)
Min Temperature 55 °F 49 °F 40 °F (1966)
Cooling Degree Days 7    
Growing Degree Days 22 (Base 50)    
Moisture  
Dew Point 45 °F    
Average Humidity 43    
Maximum Humidity 64    
Minimum Humidity 22    
Precipitation  
Precipitation 0.00 in - - ()
Sea Level Pressure  
Sea Level Pressure 29.95 in    
Wind  
Wind Speed 3 mph (SSE)    
Max Wind Speed 13 mph    
Max Gust Speed -    
Visibility 10 miles    
Events      
Averages and records for this station are not official NWS values.
T = Trace of Precipitation, MM = Missing Value Source: NWS Daily Summary

Daily Weather History Graph

Daily Weather History Graph

Search for Another Location

Airport or City:

Trip Planner

Search our weather history database for the weather conditions in past years. The results will help you decide how hot, cold, wet, or windy it might be!

Date:

Astronomy

Oct. 18, 2012 Rise Set
Actual Time 7:19 AM PDT 6:22 PM PDT
Civil Twilight 6:52 AM PDT 6:49 PM PDT
Nautical Twilight 6:21 AM PDT 7:20 PM PDT
Astronomical Twilight 5:50 AM PDT 7:51 PM PDT
Moon 11:05 AM PDT (10/18) 9:03 PM PDT (10/18)
Length of Visible Light 11h 57m
Length of Day
11h 02m
Waxing Crescent, 15% of the Moon is Illuminated
Oct 18
Waxing Crescent
Oct 21
First Quarter
Oct 29
Full
Nov 6
Last Quarter
Nov 13
New

Hourly Weather History & Observations

Time (PDT) Temp. Dew Point Humidity Pressure Visibility Wind Dir Wind Speed Gust Speed Precip Events Conditions
12:53 AM 57.0 °F 42.1 °F 57% 29.91 in 10.0 mi Calm Calm - N/A   Unknown
1:53 AM 55.0 °F 41.0 °F 59% 29.92 in 10.0 mi Calm Calm - N/A   Clear
2:53 AM 57.0 °F 42.1 °F 57% 29.93 in 10.0 mi Calm Calm - N/A   Clear
3:53 AM 57.0 °F 43.0 °F 59% 29.92 in 10.0 mi Calm Calm - N/A   Clear
4:53 AM 55.0 °F 43.0 °F 64% 29.93 in 10.0 mi North 4.6 mph - N/A   Clear
5:53 AM 57.0 °F 41.0 °F 55% 29.94 in 10.0 mi Calm Calm - N/A   Clear
6:53 AM 55.0 °F 41.0 °F 59% 29.95 in 10.0 mi North 3.5 mph - N/A   Clear
7:53 AM 55.0 °F 42.1 °F 62% 29.96 in 10.0 mi Calm Calm - N/A   Clear
8:53 AM 66.0 °F 41.0 °F 40% 29.98 in 10.0 mi NNW 4.6 mph - N/A   Clear
9:53 AM 73.0 °F 39.0 °F 29% 29.99 in 10.0 mi Calm Calm - N/A   Clear
10:53 AM 78.1 °F 39.0 °F 25% 29.99 in 9.0 mi Calm Calm - N/A   Unknown
11:53 AM - - N/A% 29.97 in - North - - N/A   Clear
12:53 PM 84.9 °F 42.1 °F 22% 29.97 in 10.0 mi Variable 3.5 mph - N/A   Clear
1:53 PM 87.1 °F 45.0 °F 23% 29.95 in 10.0 mi Calm Calm - N/A   Clear
2:53 PM 88.0 °F 50.0 °F 27% 29.94 in 10.0 mi SW 6.9 mph - N/A   Clear
3:53 PM 89.1 °F 50.0 °F 26% 29.94 in 10.0 mi South 10.4 mph - N/A   Clear
4:53 PM 87.1 °F 51.1 °F 29% 29.93 in 10.0 mi SSE 10.4 mph - N/A   Clear
5:53 PM 82.9 °F 52.0 °F 34% 29.92 in 10.0 mi South 9.2 mph - N/A   Clear
6:53 PM 77.0 °F 52.0 °F 42% 29.93 in 10.0 mi South 9.2 mph - N/A   Clear
7:53 PM 73.0 °F 50.0 °F 44% 29.95 in 10.0 mi South 6.9 mph - N/A   Clear
8:53 PM 71.1 °F 50.0 °F 47% 29.96 in 10.0 mi SE 6.9 mph - N/A   Clear
9:53 PM 68.0 °F 48.0 °F 49% 29.98 in 10.0 mi SE 9.2 mph - N/A   Clear
10:53 PM 73.0 °F 48.0 °F 41% 29.99 in 10.0 mi SE 12.7 mph - N/A   Clear
11:53 PM 68.0 °F 48.0 °F 49% 29.98 in 10.0 mi SE 10.4 mph - N/A   Clear